Hourly Weather Holm

Today, 12 April, Monday

Time Temperature Precipitation Wind Pressure Humidity
00:00 +8°C° 0 mm 1 mps 758 mmHg 85%
01:00 +8°C° 0 mm 1 mps 758 mmHg 86%
02:00 +6°C° 0 mm 2 mps 758 mmHg 85%
03:00 +6°C° 0 mm 2 mps 759 mmHg 85%
04:00 +6°C° 0 mm 2 mps 759 mmHg 85%
05:00 +5°C° 0 mm 2 mps 759 mmHg 84%
06:00 +7°C° 0 mm 2 mps 759 mmHg 77%
07:00 +9°C° 0 mm 2 mps 759 mmHg 70%
08:00 +11°C° 0 mm 3 mps 759 mmHg 63%
09:00 +12°C° 0 mm 3 mps 759 mmHg 57%
10:00 +13°C° 0 mm 4 mps 759 mmHg 52%
11:00 +15°C° 0 mm 4 mps 758 mmHg 46%
12:00 +15°C° 0 mm 4 mps 758 mmHg 45%
13:00 +15°C° 0 mm 5 mps 758 mmHg 43%
14:00 +15°C° 0 mm 5 mps 757 mmHg 42%
15:00 +14°C° 0 mm 5 mps 757 mmHg 46%
16:00 +13°C° 0 mm 4 mps 756 mmHg 50%
17:00 +13°C° 0 mm 4 mps 756 mmHg 54%
18:00 +12°C° 0 mm 4 mps 756 mmHg 59%
19:00 +11°C° 0 mm 4 mps 756 mmHg 64%
20:00 +10°C° 0 mm 4 mps 755 mmHg 69%
21:00 +10°C° 0 mm 3 mps 755 mmHg 74%
22:00 +9°C° 0 mm 3 mps 755 mmHg 79%
23:00 +8°C° 0 mm 3 mps 755 mmHg 84%

Tomorrow, 13 April, Tuesday

Time Temperature Precipitation Wind Pressure Humidity
00:00 +8°C° 0 mm 3 mps 754 mmHg 87%
01:00 +7°C° 0 mm 2 mps 754 mmHg 91%
02:00 +7°C° 0 mm 2 mps 754 mmHg 95%
03:00 +7°C° 0 mm 2 mps 753 mmHg 95%
04:00 +7°C° 0 mm 2 mps 753 mmHg 96%
05:00 +6°C° 0 mm 2 mps 753 mmHg 96%
06:00 +8°C° 0 mm 3 mps 753 mmHg 90%
07:00 +9°C° 0 mm 3 mps 752 mmHg 84%
08:00 +11°C° 0 mm 3 mps 752 mmHg 78%
09:00 +12°C° 0 mm 3 mps 752 mmHg 71%
10:00 +14°C° 0 mm 4 mps 752 mmHg 64%
11:00 +17°C° 0 mm 4 mps 752 mmHg 57%
12:00 +18°C° 0 mm 4 mps 752 mmHg 54%
13:00 +19°C° 0 mm 4 mps 752 mmHg 51%
14:00 +20°C° 0 mm 4 mps 751 mmHg 49%
15:00 +19°C° 0 mm 4 mps 751 mmHg 51%
16:00 +19°C° 0 mm 3 mps 751 mmHg 52%
17:00 +18°C° 0 mm 3 mps 751 mmHg 54%
18:00 +17°C° 0 mm 3 mps 751 mmHg 59%
19:00 +14°C° 0 mm 3 mps 751 mmHg 64%
20:00 +12°C° 0 mm 3 mps 751 mmHg 69%
21:00 +12°C° 0 mm 3 mps 751 mmHg 71%
22:00 +12°C° 0 mm 2 mps 751 mmHg 73%
23:00 +12°C° 0 mm 2 mps 750 mmHg 75%

Day after tomorrow, 14 April, Wednesday

Time Temperature Precipitation Wind Pressure Humidity
00:00 +10°C° 0 mm 2 mps 750 mmHg 77%
01:00 +10°C° 0 mm 2 mps 750 mmHg 78%
02:00 +9°C° 0 mm 2 mps 750 mmHg 79%
03:00 +9°C° 0 mm 2 mps 750 mmHg 79%
04:00 +9°C° 0 mm 2 mps 749 mmHg 79%
05:00 +8°C° 0 mm 2 mps 749 mmHg 78%
06:00 +10°C° 0 mm 2 mps 749 mmHg 74%
07:00 +11°C° 0 mm 3 mps 749 mmHg 69%
08:00 +13°C° 0 mm 3 mps 749 mmHg 64%
09:00 +14°C° 0 mm 3 mps 749 mmHg 61%
10:00 +15°C° 0 mm 4 mps 749 mmHg 57%
11:00 +17°C° 0 mm 4 mps 749 mmHg 54%
12:00 +18°C° 0.2 mm 4 mps 749 mmHg 55%
13:00 +18°C° 0.2 mm 4 mps 748 mmHg 55%
14:00 +18°C° 0.2 mm 4 mps 748 mmHg 55%
15:00 +17°C° 0.2 mm 3 mps 748 mmHg 60%
16:00 +16°C° 0.2 mm 3 mps 748 mmHg 65%
17:00 +15°C° 0.2 mm 2 mps 748 mmHg 70%
18:00 +14°C° 0 mm 2 mps 748 mmHg 74%
19:00 +13°C° 0 mm 2 mps 748 mmHg 77%
20:00 +13°C° 0 mm 1 mps 748 mmHg 80%
21:00 +12°C° 0 mm 1 mps 748 mmHg 83%
22:00 +11°C° 0 mm 1 mps 748 mmHg 85%
23:00 +11°C° 0 mm 1 mps 748 mmHg 87%

15 April, Thursday

Time Temperature Precipitation Wind Pressure Humidity
00:00 +11°C° 0 mm 1 mps 748 mmHg 89%
01:00 +9°C° 0 mm 2 mps 749 mmHg 91%
02:00 +9°C° 0 mm 2 mps 749 mmHg 92%
03:00 +9°C° 0 mm 2 mps 749 mmHg 93%
04:00 +8°C° 0 mm 2 mps 749 mmHg 94%
05:00 +8°C° 0 mm 2 mps 749 mmHg 95%
06:00 +9°C° 0 mm 2 mps 749 mmHg 92%
07:00 +10°C° 0 mm 3 mps 749 mmHg 89%
08:00 +10°C° 0 mm 3 mps 749 mmHg 86%
09:00 +11°C° 0 mm 3 mps 749 mmHg 81%
10:00 +12°C° 0 mm 3 mps 749 mmHg 77%
11:00 +13°C° 0 mm 3 mps 749 mmHg 73%
12:00 +13°C° 0 mm 3 mps 749 mmHg 71%
13:00 +13°C° 0 mm 4 mps 749 mmHg 69%
14:00 +14°C° 0 mm 4 mps 749 mmHg 67%
15:00 +13°C° 0 mm 4 mps 749 mmHg 70%
16:00 +12°C° 0 mm 4 mps 750 mmHg 73%
17:00 +12°C° 0 mm 4 mps 750 mmHg 77%
18:00 +11°C° 0 mm 4 mps 750 mmHg 80%
19:00 +10°C° 0 mm 4 mps 750 mmHg 83%
20:00 +8°C° 0 mm 4 mps 750 mmHg 86%
21:00 +7°C° 0 mm 4 mps 750 mmHg 87%
22:00 +7°C° 0 mm 4 mps 750 mmHg 88%
23:00 +6°C° 0 mm 4 mps 750 mmHg 88%

16 April, Friday

Time Temperature Precipitation Wind Pressure Humidity
00:00 +6°C° 0 mm 4 mps 751 mmHg 89%
01:00 +5°C° 0 mm 4 mps 751 mmHg 89%
02:00 +5°C° 0 mm 4 mps 751 mmHg 90%
03:00 +5°C° 0 mm 5 mps 751 mmHg 90%
04:00 +3°C° 0 mm 5 mps 751 mmHg 90%
05:00 +3°C° 0 mm 5 mps 751 mmHg 90%
06:00 +5°C° 0 mm 5 mps 752 mmHg 86%
07:00 +6°C° 0 mm 5 mps 752 mmHg 81%
08:00 +6°C° 0 mm 5 mps 752 mmHg 77%
09:00 +7°C° 0 mm 5 mps 752 mmHg 73%
10:00 +9°C° 0 mm 6 mps 752 mmHg 69%
11:00 +10°C° 0 mm 6 mps 753 mmHg 66%
12:00 +10°C° 0 mm 6 mps 753 mmHg 63%
13:00 +11°C° 0 mm 6 mps 753 mmHg 60%
14:00 +11°C° 0 mm 6 mps 753 mmHg 57%
15:00 +11°C° 0 mm 6 mps 753 mmHg 56%
16:00 +10°C° 0 mm 6 mps 754 mmHg 54%
17:00 +10°C° 0 mm 6 mps 754 mmHg 53%
18:00 +8°C° 0 mm 5 mps 754 mmHg 54%
19:00 +7°C° 0 mm 5 mps 755 mmHg 55%
20:00 +6°C° 0 mm 5 mps 755 mmHg 56%
21:00 +6°C° 0 mm 5 mps 755 mmHg 58%
22:00 +5°C° 0 mm 5 mps 756 mmHg 60%
23:00 +3°C° 0 mm 5 mps 756 mmHg 62%

17 April, Saturday

Time Temperature Precipitation Wind Pressure Humidity
00:00 +4°C° 0 mm 4 mps 757 mmHg 64%
01:00 +3°C° 0 mm 4 mps 757 mmHg 66%
02:00 +3°C° 0 mm 4 mps 757 mmHg 68%
03:00 +1°C° 0 mm 4 mps 758 mmHg 69%
04:00 +1°C° 0 mm 4 mps 758 mmHg 71%
05:00 +1°C° 0 mm 4 mps 758 mmHg 72%
06:00 +3°C° 0 mm 4 mps 759 mmHg 66%
07:00 +4°C° 0 mm 4 mps 759 mmHg 59%
08:00 +6°C° 0 mm 5 mps 759 mmHg 52%
09:00 +7°C° 0 mm 5 mps 759 mmHg 48%
10:00 +8°C° 0 mm 5 mps 759 mmHg 43%
11:00 +9°C° 0 mm 5 mps 760 mmHg 38%
12:00 +10°C° 0 mm 5 mps 760 mmHg 37%
13:00 +10°C° 0 mm 5 mps 760 mmHg 36%
14:00 +12°C° 0 mm 5 mps 760 mmHg 34%
15:00 +11°C° 0 mm 4 mps 760 mmHg 37%
16:00 +11°C° 0 mm 4 mps 760 mmHg 39%
17:00 +10°C° 0 mm 4 mps 760 mmHg 42%
18:00 +9°C° 0 mm 3 mps 760 mmHg 49%
19:00 +7°C° 0 mm 3 mps 760 mmHg 57%
20:00 +5°C° 0 mm 3 mps 760 mmHg 64%
21:00 +5°C° 0 mm 2 mps 760 mmHg 67%
22:00 +4°C° 0 mm 2 mps 761 mmHg 70%
23:00 +3°C° 0 mm 2 mps 761 mmHg 73%
Show more